DLH697 EDDC-LFSB

Flight info

Callsign DLH697
Flight time 0h 57m
Altitude 38000
Route ABKIS4E ABKIS Z715 ANELA N869 AMOSA DCT DKB N869 TEDGO/N0368F240 T716 DENEL T715 RIGVI
Aircraft A320/M-SDE3FGHIRWY/LB1

Departure

Time 2026-04-29 16:24
Airport Dresden Airport (EDDC)

Arrival

Time 2026-04-29 17:21
Airport EuroAirport Basel–Mulhouse–Freiburg (LFSB)
Time Latitude Longitude Altitude Speed Heading
2026-04-29 15:46 51.12568 13.76316 766 ft 0 kts 131°
2026-04-29 16:14 51.12568 13.76315 766 ft 1 kts 131°
2026-04-29 16:14 51.12585 13.76286 766 ft 4 kts 132°
2026-04-29 16:14 51.12603 13.76255 766 ft 4 kts 135°
2026-04-29 16:15 51.12623 13.76226 766 ft 4 kts 142°
2026-04-29 16:15 51.12645 13.76205 766 ft 4 kts 175°
2026-04-29 16:15 51.12657 13.76209 766 ft 0 kts 221°
2026-04-29 16:16 51.12657 13.76208 766 ft 0 kts 221°
2026-04-29 16:18 51.12652 13.76201 766 ft 2 kts 221°
2026-04-29 16:18 51.12636 13.76179 766 ft 4 kts 221°
2026-04-29 16:18 51.12613 13.76148 766 ft 5 kts 221°
2026-04-29 16:19 51.12584 13.76108 766 ft 6 kts 221°
2026-04-29 16:19 51.12549 13.76059 766 ft 7 kts 221°
2026-04-29 16:19 51.12507 13.76002 766 ft 9 kts 220°
2026-04-29 16:19 51.12469 13.75951 766 ft 4 kts 220°
2026-04-29 16:20 51.12445 13.75919 766 ft 5 kts 220°
2026-04-29 16:20 51.12414 13.75878 766 ft 6 kts 220°
2026-04-29 16:20 51.12381 13.75831 766 ft 4 kts 228°
2026-04-29 16:20 51.12369 13.75782 766 ft 6 kts 271°
2026-04-29 16:21 51.12381 13.75717 766 ft 7 kts 291°
2026-04-29 16:21 51.12395 13.75663 766 ft 2 kts 292°
2026-04-29 16:21 51.12396 13.75659 766 ft 0 kts 292°
2026-04-29 16:22 51.12407 13.75616 766 ft 7 kts 296°
2026-04-29 16:22 51.12439 13.75545 766 ft 8 kts 311°
2026-04-29 16:22 51.12477 13.75496 766 ft 6 kts 359°
2026-04-29 16:23 51.12498 13.75512 766 ft 0 kts 39°
2026-04-29 16:23 51.12506 13.75523 766 ft 8 kts 39°
2026-04-29 16:23 51.12701 13.75792 766 ft 67 kts 41°
2026-04-29 16:24 51.13202 13.76482 766 ft 123 kts 41°
2026-04-29 16:24 51.13981 13.77537 875 ft 162 kts 42°
2026-04-29 16:24 51.14813 13.78657 1755 ft 152 kts 43°
2026-04-29 16:24 51.15604 13.79754 2563 ft 150 kts 43°
2026-04-29 16:25 51.16420 13.80919 3017 ft 169 kts 43°
2026-04-29 16:25 51.17372 13.82259 3266 ft 197 kts 42°
2026-04-29 16:25 51.18501 13.83834 3468 ft 235 kts 42°
2026-04-29 16:25 51.19687 13.85714 4380 ft 243 kts 57°
2026-04-29 16:26 51.20087 13.87362 5199 ft 242 kts 80°
2026-04-29 16:26 51.20137 13.90098 6168 ft 255 kts 94°
2026-04-29 16:26 51.19709 13.92835 6795 ft 256 kts 118°
2026-04-29 16:26 51.18504 13.94979 7588 ft 267 kts 137°
2026-04-29 16:27 51.17120 13.96996 8567 ft 270 kts 133°
2026-04-29 16:27 51.15782 13.99130 9525 ft 274 kts 131°
2026-04-29 16:27 51.14441 14.01350 10302 ft 286 kts 130°
2026-04-29 16:27 51.12992 14.03787 10446 ft 319 kts 129°
2026-04-29 16:28 51.11404 14.06461 10811 ft 342 kts 130°
2026-04-29 16:28 51.09566 14.08936 11568 ft 355 kts 146°
2026-04-29 16:28 51.07203 14.10395 12201 ft 373 kts 168°
2026-04-29 16:28 51.04592 14.10370 12974 ft 380 kts 192°
2026-04-29 16:29 51.02151 14.08866 13941 ft 377 kts 214°
2026-04-29 16:29 51.00080 14.06238 14474 ft 386 kts 226°
2026-04-29 16:29 50.98130 14.03306 15311 ft 386 kts 227°
2026-04-29 16:29 50.96198 14.00327 16100 ft 389 kts 228°
2026-04-29 16:30 50.94252 13.97301 16812 ft 393 kts 228°
2026-04-29 16:30 50.92288 13.94254 17504 ft 397 kts 227°
2026-04-29 16:30 50.90298 13.91190 18172 ft 401 kts 227°
2026-04-29 16:30 50.88281 13.88109 18816 ft 405 kts 227°
2026-04-29 16:31 50.86236 13.85009 19432 ft 409 kts 227°
2026-04-29 16:31 50.84168 13.81886 20031 ft 413 kts 227°
2026-04-29 16:31 50.82084 13.78722 20602 ft 417 kts 229°
2026-04-29 16:31 50.80202 13.75220 21146 ft 417 kts 238°
2026-04-29 16:32 50.78700 13.71330 21795 ft 414 kts 248°
2026-04-29 16:32 50.77562 13.67131 22136 ft 420 kts 255°
2026-04-29 16:32 50.76551 13.62785 22718 ft 421 kts 254°
2026-04-29 16:32 50.75531 13.58423 23281 ft 424 kts 254°
2026-04-29 16:33 50.73478 13.49672 24262 ft 432 kts 254°
2026-04-29 16:33 50.72425 13.45214 24753 ft 435 kts 254°
2026-04-29 16:33 50.71360 13.40723 25251 ft 439 kts 254°
2026-04-29 16:34 50.70282 13.36197 25738 ft 443 kts 253°
2026-04-29 16:34 50.69193 13.31635 26235 ft 446 kts 253°
2026-04-29 16:34 50.68093 13.27041 26725 ft 449 kts 253°
2026-04-29 16:34 50.66982 13.22404 27173 ft 453 kts 253°
2026-04-29 16:35 50.65863 13.17736 27563 ft 456 kts 253°
2026-04-29 16:35 50.64735 13.13048 27919 ft 459 kts 253°
2026-04-29 16:35 50.63595 13.08325 28260 ft 462 kts 253°
2026-04-29 16:35 50.62305 13.03673 28652 ft 465 kts 246°
2026-04-29 16:36 50.60824 12.99123 28968 ft 469 kts 246°
2026-04-29 16:36 50.59329 12.94555 29264 ft 472 kts 246°
2026-04-29 16:36 50.57818 12.89953 29587 ft 475 kts 246°
2026-04-29 16:36 50.56292 12.85319 29909 ft 477 kts 246°
2026-04-29 16:37 50.54753 12.80664 30234 ft 480 kts 245°
2026-04-29 16:37 50.53204 12.75998 30557 ft 483 kts 245°
2026-04-29 16:37 50.51643 12.71294 30931 ft 483 kts 245°
2026-04-29 16:37 50.50618 12.68204 31235 ft 482 kts 245°
2026-04-29 16:38 50.48572 12.62033 31850 ft 480 kts 245°
2026-04-29 16:38 50.47028 12.57378 32287 ft 479 kts 245°
2026-04-29 16:38 50.45492 12.52764 32698 ft 477 kts 245°
2026-04-29 16:38 50.43951 12.48144 33089 ft 476 kts 245°
2026-04-29 16:39 50.42412 12.43544 33468 ft 476 kts 245°
2026-04-29 16:39 50.40874 12.38955 33862 ft 475 kts 245°
2026-04-29 16:39 50.39339 12.34381 34263 ft 473 kts 245°
2026-04-29 16:39 50.37806 12.29823 34662 ft 472 kts 245°
2026-04-29 16:40 50.36270 12.25276 35076 ft 470 kts 245°
2026-04-29 16:40 50.34729 12.20760 35506 ft 468 kts 243°
2026-04-29 16:40 50.32954 12.16510 36144 ft 463 kts 238°
2026-04-29 16:40 50.31135 12.12372 36486 ft 463 kts 239°
2026-04-29 16:41 50.29312 12.08209 36796 ft 463 kts 239°
2026-04-29 16:41 50.27498 12.04057 37139 ft 462 kts 239°
2026-04-29 16:41 50.25702 11.99907 37491 ft 460 kts 240°
2026-04-29 16:41 50.23978 11.95713 37844 ft 457 kts 242°
2026-04-29 16:42 50.22317 11.91489 38192 ft 456 kts 243°
2026-04-29 16:42 50.20686 11.87248 38315 ft 455 kts 243°
2026-04-29 16:42 50.17035 11.79242 38351 ft 455 kts 231°
2026-04-29 16:43 50.12699 11.71924 38335 ft 460 kts 230°
2026-04-29 16:43 50.08297 11.64698 38330 ft 460 kts 230°
2026-04-29 16:44 50.03873 11.57560 38320 ft 461 kts 229°
2026-04-29 16:44 49.99346 11.50504 38321 ft 460 kts 228°
2026-04-29 16:45 49.94825 11.43522 38332 ft 456 kts 229°
2026-04-29 16:45 49.89926 11.37222 38298 ft 459 kts 220°
2026-04-29 16:46 49.84767 11.31353 38296 ft 460 kts 219°
2026-04-29 16:46 49.79595 11.25526 38294 ft 460 kts 219°
2026-04-29 16:47 49.74785 11.19114 38305 ft 453 kts 230°
2026-04-29 16:47 49.70410 11.12088 38288 ft 453 kts 230°
2026-04-29 16:48 49.66024 11.05086 38283 ft 453 kts 230°
2026-04-29 16:48 49.61627 10.98098 38282 ft 453 kts 230°
2026-04-29 16:49 49.57239 10.91131 38282 ft 453 kts 229°
2026-04-29 16:49 49.52877 10.84215 38281 ft 452 kts 229°
2026-04-29 16:50 49.48490 10.77272 38278 ft 452 kts 229°
2026-04-29 16:50 49.44069 10.70298 38273 ft 452 kts 229°
2026-04-29 16:51 49.39662 10.63384 38270 ft 452 kts 229°
2026-04-29 16:51 49.35295 10.56543 38271 ft 452 kts 229°
2026-04-29 16:52 49.30893 10.49652 38270 ft 452 kts 229°
2026-04-29 16:52 49.26488 10.42787 38272 ft 451 kts 229°
2026-04-29 16:53 49.22081 10.35935 38268 ft 451 kts 229°
2026-04-29 16:53 49.17676 10.29094 38263 ft 451 kts 229°
2026-04-29 16:54 49.13378 10.22136 38269 ft 448 kts 235°
2026-04-29 16:54 49.09472 10.14746 38264 ft 447 kts 235°
2026-04-29 16:55 49.05583 10.07366 38262 ft 446 kts 235°
2026-04-29 16:55 49.01718 10.00056 38258 ft 445 kts 235°
2026-04-29 16:56 48.97823 9.92730 38257 ft 445 kts 235°
2026-04-29 16:56 48.93930 9.85410 38255 ft 444 kts 235°
2026-04-29 16:57 48.90035 9.78132 38253 ft 443 kts 234°
2026-04-29 16:57 48.86145 9.70878 38250 ft 443 kts 235°
2026-04-29 16:58 48.82253 9.63617 38247 ft 442 kts 235°
2026-04-29 16:58 48.78366 9.56374 38243 ft 442 kts 234°
2026-04-29 16:59 48.74472 9.49164 38238 ft 442 kts 234°
2026-04-29 16:59 48.70563 9.41957 38235 ft 441 kts 234°
2026-04-29 17:00 48.66667 9.34782 38234 ft 441 kts 234°
2026-04-29 17:00 48.63020 9.27372 38243 ft 436 kts 245°
2026-04-29 17:01 48.61764 9.23252 38105 ft 428 kts 255°
2026-04-29 17:01 48.60966 9.18950 37604 ft 423 kts 263°
2026-04-29 17:01 48.60441 9.14653 36924 ft 421 kts 263°
2026-04-29 17:01 48.59921 9.10314 36236 ft 419 kts 263°
2026-04-29 17:02 48.59404 9.06000 35625 ft 415 kts 263°
2026-04-29 17:02 48.58889 9.01752 35209 ft 406 kts 263°
2026-04-29 17:02 48.58379 8.97595 34756 ft 399 kts 263°
2026-04-29 17:02 48.57872 8.93519 34429 ft 389 kts 263°
2026-04-29 17:03 48.56876 8.85500 34260 ft 399 kts 263°
2026-04-29 17:03 48.56362 8.81309 34180 ft 412 kts 263°
2026-04-29 17:03 48.56012 8.78473 34198 ft 416 kts 263°
2026-04-29 17:04 48.54929 8.69859 34197 ft 417 kts 263°
2026-04-29 17:04 48.53838 8.61272 34190 ft 415 kts 263°
2026-04-29 17:05 48.52744 8.52724 34185 ft 413 kts 263°
2026-04-29 17:05 48.51651 8.44229 34182 ft 411 kts 263°
2026-04-29 17:06 48.50569 8.35823 34178 ft 410 kts 263°
2026-04-29 17:06 48.49470 8.27363 34174 ft 408 kts 263°
2026-04-29 17:07 48.47985 8.19270 33803 ft 408 kts 242°
2026-04-29 17:07 48.46129 8.16010 33138 ft 414 kts 229°
2026-04-29 17:07 48.43906 8.13192 32195 ft 417 kts 224°
2026-04-29 17:08 48.41644 8.10514 31334 ft 411 kts 224°
2026-04-29 17:08 48.39420 8.07849 30469 ft 403 kts 227°
2026-04-29 17:08 48.37365 8.04944 29458 ft 397 kts 232°
2026-04-29 17:08 48.35544 8.01967 28656 ft 388 kts 234°
2026-04-29 17:09 48.33803 7.98890 27784 ft 383 kts 236°
2026-04-29 17:09 48.32112 7.95825 26911 ft 379 kts 236°
2026-04-29 17:09 48.30430 7.92799 26047 ft 376 kts 235°
2026-04-29 17:09 48.28735 7.89820 25184 ft 373 kts 234°
2026-04-29 17:10 48.27029 7.86893 24319 ft 370 kts 233°
2026-04-29 17:10 48.25326 7.84021 23461 ft 368 kts 232°
2026-04-29 17:10 48.23615 7.81163 22612 ft 365 kts 232°
2026-04-29 17:10 48.21926 7.78351 21781 ft 362 kts 232°
2026-04-29 17:11 48.20251 7.75556 21051 ft 357 kts 232°
2026-04-29 17:11 48.18591 7.72778 19803 ft 363 kts 231°
2026-04-29 17:11 48.16885 7.69908 18783 ft 367 kts 231°
2026-04-29 17:11 48.15202 7.67091 17924 ft 362 kts 230°
2026-04-29 17:12 48.13540 7.64316 16909 ft 363 kts 230°
2026-04-29 17:12 48.11858 7.61504 15996 ft 360 kts 230°
2026-04-29 17:12 48.10194 7.58729 15118 ft 356 kts 229°
2026-04-29 17:12 48.09082 7.56877 14535 ft 354 kts 229°
2026-04-29 17:13 48.06909 7.53275 13382 ft 349 kts 229°
2026-04-29 17:13 48.05293 7.50597 12535 ft 345 kts 228°
2026-04-29 17:13 48.03679 7.47961 11687 ft 341 kts 224°
2026-04-29 17:13 48.01852 7.45717 10670 ft 342 kts 212°
2026-04-29 17:14 47.99745 7.44092 9898 ft 336 kts 199°
2026-04-29 17:14 47.97550 7.43050 9133 ft 330 kts 193°
2026-04-29 17:14 47.95351 7.42095 8290 ft 328 kts 193°
2026-04-29 17:14 47.93169 7.41157 7500 ft 325 kts 193°
2026-04-29 17:15 47.91009 7.40234 6720 ft 321 kts 193°
2026-04-29 17:15 47.88875 7.39325 6135 ft 313 kts 193°
2026-04-29 17:15 47.86858 7.38461 6006 ft 291 kts 193°
2026-04-29 17:15 47.84972 7.37652 5880 ft 272 kts 192°
2026-04-29 17:16 47.83190 7.37058 5757 ft 252 kts 179°
2026-04-29 17:16 47.81520 7.37296 5632 ft 233 kts 159°
2026-04-29 17:16 47.80084 7.38183 5504 ft 217 kts 150°
2026-04-29 17:16 47.78759 7.39110 5359 ft 205 kts 150°
2026-04-29 17:17 47.77495 7.39990 5061 ft 198 kts 150°
2026-04-29 17:17 47.76246 7.40864 4655 ft 199 kts 150°
2026-04-29 17:17 47.74996 7.41742 4270 ft 199 kts 150°
2026-04-29 17:17 47.73758 7.42610 3865 ft 197 kts 150°
2026-04-29 17:18 47.72511 7.43489 3399 ft 199 kts 151°
2026-04-29 17:18 47.71271 7.44361 2976 ft 195 kts 151°
2026-04-29 17:18 47.70060 7.45199 2695 ft 187 kts 152°
2026-04-29 17:18 47.68904 7.45974 2435 ft 177 kts 152°
2026-04-29 17:19 47.67820 7.46697 2201 ft 162 kts 151°
2026-04-29 17:19 47.66861 7.47359 1996 ft 145 kts 150°
2026-04-29 17:19 47.65989 7.47975 1767 ft 134 kts 150°
2026-04-29 17:19 47.65156 7.48575 1605 ft 135 kts 149°
2026-04-29 17:20 47.64317 7.49204 1460 ft 135 kts 148°
2026-04-29 17:20 47.63476 7.49815 1304 ft 134 kts 151°
2026-04-29 17:20 47.62625 7.50401 1110 ft 134 kts 151°
2026-04-29 17:20 47.61778 7.50985 933 ft 134 kts 150°
2026-04-29 17:21 47.60995 7.51534 896 ft 105 kts 155°
2026-04-29 17:21 47.60486 7.51886 896 ft 56 kts 155°
2026-04-29 17:21 47.60260 7.52037 896 ft 28 kts 155°
2026-04-29 17:21 47.60134 7.52125 896 ft 8 kts 152°
2026-04-29 17:22 47.60114 7.52200 896 ft 9 kts 68°
2026-04-29 17:22 47.60143 7.52294 896 ft 11 kts 64°
2026-04-29 17:22 47.60178 7.52397 896 ft 12 kts 64°
2026-04-29 17:22 47.60166 7.52493 896 ft 8 kts 152°
2026-04-29 17:23 47.60149 7.52506 896 ft 0 kts 154°
2026-04-29 17:23 47.60148 7.52507 896 ft 2 kts 154°
2026-04-29 17:23 47.60111 7.52533 896 ft 8 kts 154°
2026-04-29 17:23 47.60068 7.52563 896 ft 6 kts 156°
2026-04-29 17:24 47.60037 7.52583 896 ft 5 kts 155°
2026-04-29 17:24 47.59998 7.52611 896 ft 7 kts 154°
2026-04-29 17:24 47.59946 7.52648 896 ft 9 kts 154°
2026-04-29 17:24 47.59878 7.52699 896 ft 13 kts 153°
2026-04-29 17:25 47.59791 7.52758 896 ft 14 kts 156°
2026-04-29 17:25 47.59737 7.52794 896 ft 5 kts 156°
2026-04-29 17:25 47.59682 7.52830 896 ft 8 kts 155°
2026-04-29 17:25 47.59653 7.52870 896 ft 4 kts 109°
2026-04-29 17:26 47.59677 7.52965 896 ft 16 kts 63°
2026-04-29 17:26 47.59748 7.53032 896 ft 7 kts 12°
2026-04-29 17:26 47.59766 7.53044 896 ft 0 kts 36°
2026-04-29 17:27 47.59773 7.53078 896 ft 7 kts 96°
2026-04-29 17:27 47.59776 7.53132 896 ft 3 kts 65°
2026-04-29 17:27 47.59786 7.53164 896 ft 4 kts 65°
2026-04-29 17:27 47.59788 7.53170 896 ft 0 kts 65°